STAR ONE C4 (40733 NORAD) Tracking and Keplerian Element Data

This shows tracking and keplerian element data for the satellite.

Feedback or suggestion? Click here.




ElementValue
Catalog40733
NameSTAR ONE C4
Epoch Orbit3258
Epoch Day157.04007741
Epoch Year2024
RAAN351.0226
Inclination0.0219
Eccentricity0.0002421
Argument of Perigee70.8054
Mean Anonmoly136.5508
Mean Motion1.00272365
Decay Rate-2.61E-06
L11 40733U 15034B 24157.04007741 -.00000261 00000+0 00000+0 0 9990
L22 40733 0.0219 351.0226 0002421 70.8054 136.5508 1.00272365 32585



Live tracking and technical data element details for STAR ONE C4 (NORAD 40733). STAR ONE C4 can be tracked NOW for your location showing map with azimuth and elevation plus other details from your city location.







IsCatalogInMostPopularTable: catalog: 40733, numindb: 847
Update: records affected: 1



GetName: 40733 STAR ONE C4

Hit Count: updated at: Tue, 17 Sep 2024 12:59:24 GMT